Saipan, MP

5:19 AM ChST on February 26, 2017 (GMT +1000)
Saipan International

Weather History for PGSN - August, 2013

Change the Weather History Date:

Friday, August 16, 2013

  Actual Average Record
Temperature  
Mean Temperature 84 °F -  
Max Temperature 90 °F 84 °F 90 °F (2013)
Min Temperature 77 °F 76 °F 73 °F (2003)
Cooling Degree Days 19    
Growing Degree Days 34 (Base 50)    
Moisture  
Dew Point 75 °F    
Average Humidity 78    
Maximum Humidity 88    
Minimum Humidity 63    
Precipitation  
Precipitation 0.28 in - - ()
Sea Level Pressure  
Sea Level Pressure 29.88 in    
Wind  
Wind Speed 6 mph (South)    
Max Wind Speed 12 mph    
Max Gust Speed 24 mph    
Visibility 10 miles    
Events Rain    
Averages and records for this station are not official NWS values.
T = Trace of Precipitation, MM = Missing Value Source: NWS Daily Summary

Daily Weather History Graph

Daily Weather History Graph

Search for Another Location

Airport or City:

Trip Planner

Search our weather history database for the weather conditions in past years. The results will help you decide how hot, cold, wet, or windy it might be!

Date:

Astronomy

Aug. 16, 2013 Rise Set
Actual Time 6:02 AM ChST 6:39 PM ChST
Civil Twilight 5:40 AM ChST 7:02 PM ChST
Nautical Twilight 5:14 AM ChST 7:28 PM ChST
Astronomical Twilight 4:48 AM ChST 7:54 PM ChST
Moon 2:01 PM ChST (8/16) 12:45 AM ChST (8/16)
Length of Visible Light 13h 21m
Length of Day
12h 37m
Waxing Gibbous, 68% of the Moon is Illuminated
Aug 16
Waxing Gibbous
Aug 21
Full
Aug 28
Last Quarter
Sep 5
New
Sep 13
First Quarter

Hourly Weather History & Observations

Time (ChST) Temp. Heat Index Dew Point Humidity Pressure Visibility Wind Dir Wind Speed Gust Speed Precip Events Conditions
12:54 AM 80.1 °F 85.1 °F 75.0 °F 85% 29.90 in 10.0 mi ESE 4.6 mph - N/A   Partly Cloudy
1:54 AM 80.1 °F 85.1 °F 75.0 °F 85% 29.88 in 10.0 mi ESE 4.6 mph - N/A   Partly Cloudy
2:54 AM 80.1 °F 84.5 °F 73.9 °F 81% 29.86 in 10.0 mi ESE 4.6 mph - N/A   Partly Cloudy
3:54 AM 80.1 °F 85.1 °F 75.0 °F 85% 29.85 in 10.0 mi ESE 5.8 mph - N/A   Partly Cloudy
4:54 AM 80.1 °F 84.5 °F 73.9 °F 81% 29.85 in 10.0 mi ESE 5.8 mph - N/A   Scattered Clouds
5:54 AM 80.1 °F 85.1 °F 75.0 °F 85% 29.85 in 10.0 mi ESE 4.6 mph - N/A   Scattered Clouds
6:54 AM 82.0 °F 88.6 °F 75.0 °F 79% 29.87 in 10.0 mi Variable 6.9 mph - N/A   Scattered Clouds
7:54 AM 84.0 °F 91.2 °F 73.9 °F 72% 29.88 in 10.0 mi SSE 9.2 mph - 0.00 in   Scattered Clouds
8:54 AM 84.9 °F 92.1 °F 73.9 °F 69% 29.89 in 10.0 mi South 11.5 mph - N/A   Scattered Clouds
9:54 AM 87.1 °F 95.4 °F 73.9 °F 65% 29.89 in 10.0 mi SSE 11.5 mph - N/A   Scattered Clouds
10:54 AM 88.0 °F 96.5 °F 73.9 °F 63% 29.89 in 10.0 mi South 9.2 mph - N/A   Partly Cloudy
11:54 AM 88.0 °F 98.5 °F 75.9 °F 67% 29.88 in 10.0 mi South 10.4 mph - N/A   Partly Cloudy
12:54 PM 90.0 °F 101.3 °F 75.9 °F 63% 29.87 in 10.0 mi SSW 10.4 mph 18.4 mph 0.00 in   Scattered Clouds
1:54 PM 84.0 °F 91.9 °F 75.0 °F 74% 29.85 in 10.0 mi SW 4.6 mph - N/A   Scattered Clouds
3:54 PM 80.1 °F 84.5 °F 73.9 °F 81% 29.83 in 10.0 mi WSW 3.5 mph - 0.01 in   Scattered Clouds
4:54 PM 82.9 °F 90.2 °F 75.0 °F 77% 29.85 in 10.0 mi SSE 5.8 mph - N/A   Scattered Clouds
5:54 PM 82.9 °F 90.8 °F 75.9 °F 79% 29.85 in 10.0 mi South 8.1 mph - N/A   Partly Cloudy
6:54 PM 82.9 °F 90.8 °F 75.9 °F 79% 29.88 in 10.0 mi South 5.8 mph - N/A   Unknown
7:34 PM 78.8 °F - 73.4 °F 83% 29.83 in 1.8 mi West 3.5 mph 24.2 mph 0.06 in Rain Light Rain
7:43 PM 78.8 °F - 73.4 °F 83% 29.83 in 10.0 mi South 3.5 mph - 0.10 in Rain Light Rain
7:54 PM 80.1 °F 84.5 °F 73.9 °F 81% 29.90 in 10.0 mi Calm Calm - 0.10 in Rain Light Rain
8:54 PM 81.0 °F 87.9 °F 77.0 °F 88% 29.92 in 10.0 mi South 6.9 mph - 0.00 in   Scattered Clouds
9:54 PM 79.0 °F - 73.0 °F 82% 29.94 in 7.0 mi South 6.9 mph - 0.09 in Rain Light Rain
10:54 PM 81.0 °F 87.3 °F 75.9 °F 85% 29.94 in 9.0 mi SSW 4.6 mph - 0.06 in Rain Light Rain
11:54 PM 77.0 °F - 73.0 °F 88% 29.92 in 9.0 mi Calm Calm - 0.02 in Rain Light Rain